Time,TemperatureF,DewpointF,PressureIn,WindDirection,WindDirectionDegrees,WindSpeedMPH,WindSpeedGustMPH,Humidity,HourlyPrecipIn,Conditions,Clouds,dailyrainin,SoftwareType,DateUTC
2013-10-31 00:03:00,-999.0,-99.9,29.50,NNW,347,6.0,7.0,-999,-99.99,,,-99.99,,2013-10-31 08:03:00,
2013-10-31 00:22:00,-999.0,-99.9,29.51,North,355,4.0,5.0,-999,-99.99,,,-99.99,,2013-10-31 08:22:00,
2013-10-31 00:32:00,-999.0,-99.9,29.51,North,351,6.0,8.0,-999,-99.99,,,-99.99,,2013-10-31 08:32:00,
2013-10-31 00:52:00,-999.0,-99.9,29.52,North,4,4.0,6.0,-999,-99.99,,,-99.99,,2013-10-31 08:52:00,
2013-10-31 01:02:00,-999.0,-99.9,29.52,NNW,347,8.0,10.0,-999,-99.99,,,-99.99,,2013-10-31 09:02:00,
2013-10-31 01:22:00,-999.0,-99.9,29.53,North,1,7.0,8.0,-999,-99.99,,,-99.99,,2013-10-31 09:22:00,
2013-10-31 01:34:00,-999.0,-99.9,29.53,NNW,344,7.0,9.0,-999,-99.99,,,-99.99,,2013-10-31 09:34:00,
2013-10-31 01:43:00,-999.0,-99.9,29.53,NNW,343,8.0,9.0,-999,-99.99,,,-99.99,,2013-10-31 09:43:00,
2013-10-31 01:53:00,-999.0,-99.9,29.53,North,351,6.0,8.0,-999,-99.99,,,-99.99,,2013-10-31 09:53:00,
2013-10-31 02:03:00,-999.0,-99.9,29.53,North,349,8.0,9.0,-999,-99.99,,,-99.99,,2013-10-31 10:03:00,
2013-10-31 02:23:00,-999.0,-99.9,29.54,NNW,345,9.0,10.0,-999,-99.99,,,-99.99,,2013-10-31 10:23:00,
2013-10-31 02:33:00,-999.0,-99.9,29.54,NNW,339,8.0,9.0,-999,-99.99,,,-99.99,,2013-10-31 10:33:00,
2013-10-31 02:53:00,-999.0,-99.9,29.54,North,350,7.0,9.0,-999,-99.99,,,-99.99,,2013-10-31 10:53:00,
2013-10-31 03:03:00,-999.0,-99.9,29.54,North,-999,7.0,9.0,-999,-99.99,,,-99.99,,2013-10-31 11:03:00,
2013-10-31 03:22:00,-999.0,-99.9,29.55,North,357,6.0,7.0,-999,-99.99,,,-99.99,,2013-10-31 11:22:00,
2013-10-31 03:33:00,-999.0,-99.9,29.55,North,1,4.0,6.0,-999,-99.99,,,-99.99,,2013-10-31 11:33:00,
2013-10-31 03:52:00,-999.0,-99.9,29.56,NNW,344,7.0,8.0,-999,-99.99,,,-99.99,,2013-10-31 11:52:00,
2013-10-31 04:02:00,-999.0,-99.9,29.56,NNW,345,6.0,7.0,-999,-99.99,,,-99.99,,2013-10-31 12:02:00,
2013-10-31 04:22:00,-999.0,-99.9,29.56,NNW,343,9.0,11.0,-999,-99.99,,,-99.99,,2013-10-31 12:22:00,
2013-10-31 04:32:00,-999.0,-99.9,29.56,NNW,341,8.0,9.0,-999,-99.99,,,-99.99,,2013-10-31 12:32:00,
2013-10-31 04:53:00,-999.0,-99.9,29.57,North,11,2.0,5.0,-999,-99.99,,,-99.99,,2013-10-31 12:53:00,
2013-10-31 05:02:00,-999.0,-99.9,29.57,North,359,4.0,6.0,-999,-99.99,,,-99.99,,2013-10-31 13:02:00,
2013-10-31 05:12:00,-999.0,-99.9,29.57,North,359,5.0,6.0,-999,-99.99,,,-99.99,,2013-10-31 13:12:00,
2013-10-31 05:22:00,-999.0,-99.9,29.57,North,354,7.0,8.0,-999,-99.99,,,-99.99,,2013-10-31 13:22:00,
2013-10-31 05:32:00,-999.0,-99.9,29.57,North,359,6.0,7.0,-999,-99.99,,,-99.99,,2013-10-31 13:32:00,
2013-10-31 05:52:00,-999.0,-99.9,29.58,NNE,29,3.0,7.0,-999,-99.99,,,-99.99,,2013-10-31 13:52:00,
2013-10-31 06:02:00,-999.0,-99.9,29.58,NE,35,4.0,5.0,-999,-99.99,,,-99.99,,2013-10-31 14:02:00,
2013-10-31 06:22:00,-999.0,-99.9,29.58,NNE,30,2.0,4.0,-999,-99.99,,,-99.99,,2013-10-31 14:22:00,
2013-10-31 06:32:00,-999.0,-99.9,29.59,North,3,4.0,6.0,-999,-99.99,,,-99.99,,2013-10-31 14:32:00,
2013-10-31 06:52:00,-999.0,-99.9,29.60,North,11,4.0,6.0,-999,-99.99,,,-99.99,,2013-10-31 14:52:00,
2013-10-31 07:02:00,-999.0,-99.9,29.60,NE,40,4.0,6.0,-999,-99.99,,,-99.99,,2013-10-31 15:02:00,
2013-10-31 07:52:00,-999.0,-99.9,29.61,North,357,5.0,7.0,-999,-99.99,,,-99.99,,2013-10-31 15:52:00,
2013-10-31 08:03:00,-999.0,-99.9,29.62,ENE,69,2.0,4.0,-999,-99.99,,,-99.99,,2013-10-31 16:03:00,
2013-10-31 08:23:00,-999.0,-99.9,29.62,NE,37,2.0,3.0,-999,-99.99,,,-99.99,,2013-10-31 16:23:00,
2013-10-31 08:33:00,-999.0,-99.9,29.62,NE,41,4.0,4.0,-999,-99.99,,,-99.99,,2013-10-31 16:33:00,
2013-10-31 08:43:00,-999.0,-99.9,29.63,ENE,69,4.0,5.0,-999,-99.99,,,-99.99,,2013-10-31 16:43:00,
2013-10-31 09:03:00,-999.0,-99.9,29.63,NE,34,3.0,4.0,-999,-99.99,,,-99.99,,2013-10-31 17:03:00,
2013-10-31 09:22:00,-999.0,-99.9,29.64,NNE,23,2.0,4.0,-999,-99.99,,,-99.99,,2013-10-31 17:22:00,
2013-10-31 09:34:00,-999.0,-99.9,29.64,North,4,3.0,5.0,-999,-99.99,,,-99.99,,2013-10-31 17:34:00,
2013-10-31 09:52:00,-999.0,-99.9,29.64,NE,35,3.0,4.0,-999,-99.99,,,-99.99,,2013-10-31 17:52:00,
2013-10-31 10:02:00,-999.0,-99.9,29.65,NNE,32,2.0,3.0,-999,-99.99,,,-99.99,,2013-10-31 18:02:00,
2013-10-31 10:12:00,-999.0,-99.9,29.65,North,359,2.0,4.0,-999,-99.99,,,-99.99,,2013-10-31 18:12:00,
2013-10-31 10:22:00,-999.0,-99.9,29.65,North,1,4.0,5.0,-999,-99.99,,,-99.99,,2013-10-31 18:22:00,
2013-10-31 10:32:00,-999.0,-99.9,29.66,North,358,3.0,4.0,-999,-99.99,,,-99.99,,2013-10-31 18:32:00,
2013-10-31 10:52:00,-999.0,-99.9,29.66,ENE,73,3.0,5.0,-999,-99.99,,,-99.99,,2013-10-31 18:52:00,
2013-10-31 11:01:00,-999.0,-99.9,29.67,NE,44,4.0,4.0,-999,-99.99,,,-99.99,,2013-10-31 19:01:00,
2013-10-31 11:22:00,-999.0,-99.9,29.67,NE,56,2.0,3.0,-999,-99.99,,,-99.99,,2013-10-31 19:22:00,
2013-10-31 11:32:00,-999.0,-99.9,29.67,NNE,25,2.0,3.0,-999,-99.99,,,-99.99,,2013-10-31 19:32:00,
2013-10-31 11:52:00,-999.0,-99.9,29.67,NNW,335,3.0,4.0,-999,-99.99,,,-99.99,,2013-10-31 19:52:00,
2013-10-31 12:02:00,-999.0,-99.9,29.68,North,359,2.0,3.0,-999,-99.99,,,-99.99,,2013-10-31 20:02:00,
2013-10-31 12:22:00,-999.0,-99.9,29.69,NNW,338,3.0,4.0,-999,-99.99,,,-99.99,,2013-10-31 20:22:00,
2013-10-31 12:32:00,-999.0,-99.9,29.69,NNW,335,4.0,4.0,-999,-99.99,,,-99.99,,2013-10-31 20:32:00,
2013-10-31 12:52:00,-999.0,-99.9,29.70,NNE,16,2.0,3.0,-999,-99.99,,,-99.99,,2013-10-31 20:52:00,
2013-10-31 13:02:00,-999.0,-99.9,29.70,NNE,33,3.0,4.0,-999,-99.99,,,-99.99,,2013-10-31 21:02:00,
2013-10-31 13:22:00,-999.0,-99.9,29.71,NE,41,0.0,2.0,-999,-99.99,,,-99.99,,2013-10-31 21:22:00,
2013-10-31 13:33:00,-999.0,-99.9,29.71,ENE,66,1.0,2.0,-999,-99.99,,,-99.99,,2013-10-31 21:33:00,
2013-10-31 13:44:00,-999.0,-99.9,29.72,WNW,303,0.0,1.0,-999,-99.99,,,-99.99,,2013-10-31 21:44:00,
2013-10-31 13:54:00,-999.0,-99.9,29.72,SSE,153,1.0,2.0,-999,-99.99,,,-99.99,,2013-10-31 21:54:00,
2013-10-31 14:03:00,-999.0,-99.9,29.72,East,94,1.0,1.0,-999,-99.99,,,-99.99,,2013-10-31 22:03:00,
2013-10-31 14:24:00,-999.0,-99.9,29.72,ENE,74,3.0,4.0,-999,-99.99,,,-99.99,,2013-10-31 22:24:00,
2013-10-31 14:34:00,-999.0,-99.9,29.73,ENE,70,3.0,4.0,-999,-99.99,,,-99.99,,2013-10-31 22:34:00,
2013-10-31 14:43:00,-999.0,-99.9,29.73,East,83,4.0,4.0,-999,-99.99,,,-99.99,,2013-10-31 22:43:00,
2013-10-31 14:53:00,29.0,-99.9,29.73,East,79,3.0,4.0,-999,-99.99,,,-99.99,,2013-10-31 22:53:00,
2013-10-31 15:03:00,-999.0,-99.9,29.72,East,90,4.0,4.0,-999,-99.99,,,-99.99,,2013-10-31 23:03:00,
2013-10-31 15:23:00,-999.0,-99.9,29.73,East,94,4.0,5.0,-999,-99.99,,,-99.99,,2013-10-31 23:23:00,
2013-10-31 15:34:00,-999.0,-99.9,29.73,East,97,3.0,4.0,-999,-99.99,,,-99.99,,2013-10-31 23:34:00,
2013-10-31 15:54:00,-999.0,-99.9,29.74,East,85,3.0,4.0,-999,-99.99,,,-99.99,,2013-10-31 23:54:00,
2013-10-31 16:02:00,-999.0,-99.9,29.74,NE,54,2.0,3.0,-999,-99.99,,,-99.99,,2013-11-01 00:02:00,
2013-10-31 16:12:00,-999.0,-99.9,29.74,ENE,57,3.0,4.0,-999,-99.99,,,-99.99,,2013-11-01 00:12:00,
2013-10-31 16:22:00,-999.0,-99.9,29.74,NE,49,2.0,3.0,-999,-99.99,,,-99.99,,2013-11-01 00:22:00,
2013-10-31 16:32:00,-999.0,-99.9,29.75,North,9,1.0,2.0,-999,-99.99,,,-99.99,,2013-11-01 00:32:00,
2013-10-31 16:52:00,-999.0,-99.9,29.75,ENE,58,2.0,2.0,-999,-99.99,,,-99.99,,2013-11-01 00:52:00,
2013-10-31 17:02:00,-999.0,-99.9,29.75,NE,50,2.0,3.0,-999,-99.99,,,-99.99,,2013-11-01 01:02:00,
2013-10-31 17:22:00,-999.0,-99.9,29.75,NNE,27,1.0,2.0,-999,-99.99,,,-99.99,,2013-11-01 01:22:00,
2013-10-31 17:33:00,-999.0,-99.9,29.76,East,96,2.0,2.0,-999,-99.99,,,-99.99,,2013-11-01 01:33:00,
2013-10-31 17:52:00,-999.0,-99.9,29.76,NE,53,0.0,1.0,-999,-99.99,,,-99.99,,2013-11-01 01:52:00,
2013-10-31 18:32:00,-999.0,-99.9,29.77,NW,308,0.0,1.0,-999,-99.99,,,-99.99,,2013-11-01 02:32:00,
2013-10-31 18:52:00,-999.0,-99.9,29.78,NNE,29,2.0,2.0,-999,-99.99,,,-99.99,,2013-11-01 02:52:00,
2013-10-31 19:03:00,-999.0,-99.9,29.78,NE,55,2.0,2.0,-999,-99.99,,,-99.99,,2013-11-01 03:03:00,
2013-10-31 19:22:00,-999.0,-99.9,29.78,NE,52,1.0,2.0,-999,-99.99,,,-99.99,,2013-11-01 03:22:00,
2013-10-31 19:34:00,-999.0,-99.9,29.78,ENE,77,1.0,1.0,-999,-99.99,,,-99.99,,2013-11-01 03:34:00,
2013-10-31 19:45:00,-999.0,-99.9,29.79,ESE,117,1.0,1.0,-999,-99.99,,,-99.99,,2013-11-01 03:45:00,
2013-10-31 20:24:00,-999.0,-99.9,29.80,NW,316,1.0,2.0,-999,-99.99,,,-99.99,,2013-11-01 04:24:00,
2013-10-31 20:34:00,-999.0,-99.9,29.80,North,5,1.0,2.0,-999,-99.99,,,-99.99,,2013-11-01 04:34:00,
2013-10-31 20:44:00,-999.0,-99.9,29.80,NE,35,2.0,3.0,-999,-99.99,,,-99.99,,2013-11-01 04:44:00,
2013-10-31 20:54:00,-999.0,-99.9,29.81,North,9,2.0,3.0,-999,-99.99,,,-99.99,,2013-11-01 04:54:00,
2013-10-31 21:03:00,-999.0,-99.9,29.81,North,352,4.0,4.0,-999,-99.99,,,-99.99,,2013-11-01 05:03:00,
2013-10-31 21:23:00,-999.0,-99.9,29.82,North,352,3.0,5.0,-999,-99.99,,,-99.99,,2013-11-01 05:23:00,
2013-10-31 21:34:00,-999.0,-99.9,29.82,North,5,2.0,2.0,-999,-99.99,,,-99.99,,2013-11-01 05:34:00,
2013-10-31 21:53:00,-999.0,-99.9,29.82,NE,53,1.0,2.0,-999,-99.99,,,-99.99,,2013-11-01 05:53:00,
2013-10-31 22:02:00,-999.0,-99.9,29.83,NE,51,2.0,3.0,-999,-99.99,,,-99.99,,2013-11-01 06:02:00,
2013-10-31 22:22:00,-999.0,-99.9,29.83,NE,55,3.0,4.0,-999,-99.99,,,-99.99,,2013-11-01 06:22:00,
2013-10-31 22:32:00,-999.0,-99.9,29.83,NE,43,4.0,4.0,-999,-99.99,,,-99.99,,2013-11-01 06:32:00,
2013-10-31 22:52:00,-999.0,-99.9,29.84,NE,40,4.0,4.0,-999,-99.99,,,-99.99,,2013-11-01 06:52:00,
2013-10-31 23:02:00,-999.0,-99.9,29.84,NE,40,4.0,4.0,-999,-99.99,,,-99.99,,2013-11-01 07:02:00,
2013-10-31 23:12:00,-999.0,-99.9,29.84,NE,40,4.0,4.0,-999,-99.99,,,-99.99,,2013-11-01 07:12:00,
2013-10-31 23:32:00,-999.0,-99.9,29.85,ENE,74,4.0,5.0,-999,-99.99,,,-99.99,,2013-11-01 07:32:00,
2013-10-31 23:42:00,-999.0,-99.9,29.85,ENE,72,4.0,5.0,-999,-99.99,,,-99.99,,2013-11-01 07:42:00,
2013-10-31 23:52:00,-999.0,-99.9,29.85,ENE,70,5.0,5.0,-999,-99.99,,,-99.99,,2013-11-01 07:52:00,